Location: Pinhey's Point
(45.4411°N, 75.9539°W)
Time: 19:18:48
(UTC-05:00)

Iridium 65 - Visible Passes

Search period start: 02 December 2016 00:00
Search period end: 12 December 2016 00:00
Orbit: 776 x 779 km, 86.4° (Epoch: 02 December)

Date Brightness Start Highest point End Pass type
(mag) Time Alt. Az. Time Alt. Az. Time Alt. Az.
02 Dec 7.7 16:50:32 10° SW 16:54:54 27° WNW 16:59:18 10° NNW visible
04 Dec 8.5 17:27:48 10° W 17:29:10 11° WNW 17:30:33 10° NW visible
05 Dec 8.1 16:51:30 10° WSW 16:55:13 19° WNW 16:58:56 10° NNW visible
08 Dec 8.2 16:52:55 10° W 16:55:34 14° WNW 16:58:14 10° NW visible
